sat.trackr.live / text

‹ back to catalog

STARLINK-31622

NORAD 59456 · 2024-068B

PAYLOAD ACTIVE UNKNOWN

§ Identity

Operator
Country
US
Launch date
2024-04-10
Launch site
AFETR
Launch vehicle
Mass (kg)
RCS (m²)

Purposes: comms

External: N2YO · Heavens-Above · Gunter

§ Orbital elements

Epoch: 2026-09-21T14:37:45.953760Z

Period
94.27 min
Inclination
43.0039°
Eccentricity
0.0001057
Mean motion
15.27581963 rev/d
Perigee alt
482.3 km
Apogee alt
483.8 km
Semi-major
6,861.2 km
B*
2.0987e-5
RAAN
8.2805°
Arg perigee
266.9458°
Mean anomaly
93.1273°
Rev number
13,848

§ Raw data

STARLINK-316221 59456U 24068B   26264.60955965  .00000316  00000+0  20987-4 0  99932 59456  43.0039   8.2805 0001057 266.9458  93.1273 15.27581963138482

JSON: /api/v1/satellites/59456 · /tle

For live sub-satellite position, see the globe view (requires WebGL).

§ Visibility from observer

Set your observer location to see the next 7 days of passes ≥ 10°. The values pass through the URL so the page stays shareable.

No JS? Fill the form by hand. The geolocation button needs JavaScript.